014  
ASUS46 KLOX 240910  
RWRCA  
 
SOUTHERN CALIFORNIA WEATHER ROUNDUP  
NATIONAL WEATHER SERVICE OXNARD CALIFORNIA  
100 AM PST SAT FEB 24 2024  
 
NOTE: "FAIR" INDICATES FEW OR NO CLOUDS BELOW 12,000 FEET WITH NO  
SIGNIFICANT WEATHER AND/OR S TO VISIBILITY
.  
 
- STATIONS PRECEEDED BY AN ASTERISK (*) ARE NOT NWS OR FAA  
STATIONS AND ARE NOT SUBJECT TO NWS AND FAA QUALITY CONTROL.
 
 
CAZ041-042-087-241000-  
LA AND ORANGE COUNTY COASTAL AREAS  
 
 
CITY SKY/WX TMP DP RH WIND PRES REMARKS
 
L.A. DOWNTOWN CLOUDY 62 47 57 VRB3 30.04F  
L.A. AIRPORT CLOUDY 59 51 75 NE7 30.04S  
LONG BEACH CLOUDY 60 53 77 CALM 30.03F  
 
CITY SKY/WX TMP DP RH WIND PRES REMARKS
 
FULLERTON CLOUDY 58 53 84 CALM 30.03F  
HAWTHORNE CLOUDY 60 51 72 CALM 30.04S  
*LEO CARRILLO N/A 57 42 57 NE5 N/A  
*LOS ALAMITOS CLOUDY 58 54 86 NE3 30.00F  
SANTA ANA MOCLDY 60 44 55 CALM 30.03F  
STA MONICA APT CLOUDY 58 55 90 NE3 30.03F  
*STA MON PIER N/A 61 53 76 NE5 29.97F  
 

 
 
CAZ547-548-048-241000-  
LA COUNTY VALLEYS AND INLAND EMPIRE  
 
 
CITY SKY/WX TMP DP RH WIND PRES REMARKS
 
BURBANK MOCLDY 57 40 52 CALM 30.04F  
VAN NUYS MOCLDY 58 38 47 CALM 30.03F  
 
CITY SKY/WX TMP DP RH WIND PRES REMARKS
 
CORONA AIRPORT MOCLDY 52 43 71 CALM 30.06S  
CHINO MOCLDY 53 44 71 CALM 30.06F  
*CLAREMONT N/A 56 37 48 N2 N/A  
MARCH AFB MOCLDY 48 42 80 CALM 30.06F  
ONTARIO MOCLDY 58 34 40 NE3 30.05S  
*PASADENA N/A 59 45 58 CALM N/A  
RIVERSIDE MOCLDY 57 38 48 NE6 30.05F  
SAN BERNARDINO MOCLDY 51 36 56 CALM 30.06F  
*SAN RAFAEL HI N/A 59 34 39 E8 N/A  
*SAUGUS N/A 58 31 36 NE7 N/A  
*WHITEMAN AP NOT AVBL  
*WHITTIER HILL N/A 57 45 65 SE7 N/A  
*WOODLAND HILL N/A 48 37 66 MISG N/A  
 

 
 
CAZ054-055-241000-  
LA AND SAN BERNARDINO COUNTY MOUNTAINS  
 
 
CITY SKY/WX TMP DP RH WIND PRES REMARKS
 
*ACTON N/A 47 34 60 CALM N/A  
*BIG BEAR AIRP MOCLDY 28 21 74 CALM 30.20S  
*BIG PINES N/A 40 22 48 CALM N/A  
*CHILAO N/A 48 24 39 E7 N/A  
SANDBERG PTCLDY 47 26 44 E16 30.14S  
*WARM SPRINGS N/A 49 24 37 CALM N/A  
 

 
 
CAZ028-029-059-060-099-241000-  
ANTELOPE VALLEY AND SURROUNDING AREAS  
 
 
CITY SKY/WX TMP DP RH WIND PRES REMARKS
 
LANCASTER MOCLDY 39 34 82 W5 30.13F  
PALMDALE MOCLDY 42 35 76 S3 30.13F  
*POPPY PARK N/A 42 33 70 W5 N/A  
 
CITY SKY/WX TMP DP RH WIND PRES REMARKS
 
29 PALMS MOCLDY 50 36 58 W8 30.17F  
BARSTOW/DAGGET MOCLDY 46 39 76 W6 30.11F  
BISHOP PTCLDY 33 27 78 NW8 30.19S WCI 26  
CHINA LAKE PTCLDY 43 33 68 SW3 30.13S  
EDWARDS AFB MOCLDY 45 34 66 CALM 30.10F  
MOJAVE PTCLDY 43 30 61 N7 30.13F  
NEEDLES PTCLDY 59 28 30 W8 30.06F  
VICTORVILLE MOCLDY 43 37 81 S5 30.15F  
 

 
 
CAZ039-040-241000-  
VENTURA AND SANTA BARBARA COUNTY COAST  
 
 
CITY SKY/WX TMP DP RH WIND PRES REMARKS
 
CAMARILLO MOCLDY 56 42 59 NE8 30.01F  
NWS OXNARD N/A 55 44 67 SW3 30.01F  
OXNARD AIRPORT MOCLDY 53 49 86 CALM 30.01F  
*POINT MUGU N/A 57 52 83 CALM 30.02S  
SBA APT/GOLETA CLEAR 51 45 79 CALM 30.00F  
 

 
 
CAZ044-045-241000-  
VENTURA COUNTY VALLEYS  
 
 
CITY SKY/WX TMP DP RH WIND PRES REMARKS
 
*SIMI VALLEY N/A 62 37 39 N7 29.97F  
*N 1000 OAKS N/A 61 37 42 E3 30.03S  
*TO CIVIC ARTS N/A 54 48 82 E5 N/A  
*WESTLAKE VILL N/A 46 40 78 CALM 30.01F  
*OJAI N/A 44 41 90 NE1 N/A  
*FILLMORE N/A 52 42 68 NE3 30.08S  
 

 
 
CAZ053-241000-  
VENTURA COUNTY MOUNTAINS  
 
 
CITY SKY/WX TMP DP RH WIND PRES REMARKS
 
*LOCKWOOD VLY N/A 34 27 75 MISG N/A  
*ROSE VALLEY N/A 34 32 93 MISG N/A  
 

 
 
CAZ034-035-036-241000-  
CENTRAL COAST AND SANTA YNEZ VALLEY  
 
 
CITY SKY/WX TMP DP RH WIND PRES REMARKS
 
SAN LUIS OBISP PTCLDY 52 46 80 E5 30.01F  
SANTA MARIA PTCLDY 50 47 89 CALM 30.02F  
 
CITY SKY/WX TMP DP RH WIND PRES REMARKS
 
*CAL POLY SLO N/A 59 48 67 E3 N/A  
*LOMPOC CLEAR 47 47 100 E8 30.02F  
*SANTA YNEZ CLEAR 46 43 87 CALM 30.02F  
 

 
 
CAZ037-038-051-241000-  
SAN LUIS OBISPO COUNTY INTERIOR AND CUYAMA VALLEY  
 
 
CITY SKY/WX TMP DP RH WIND PRES REMARKS
 
PASO ROBLES CLEAR 43 40 89 CALM 30.06F  
 

 
 
CAZ032-033-061-241000-  
SOUTHERN DESERTS  
 
 
CITY SKY/WX TMP DP RH WIND PRES REMARKS
 
BLYTHE CLOUDY 59 34 39 SW5 30.04F  
IMPERIAL NOT AVBL  
PALM SPRINGS MOCLDY 64 34 32 MISG 30.06F  
THERMAL CLOUDY 60 37 42 N5 30.02F  
 

 
 
ELSEWHERE ACROSS THE WESTERN UNITED STATES AND MEXICO  
 
 
CITY SKY/WX TMP DP RH WIND PRES REMARKS
 
DEATH VALLEY, N/A 59 34 39 CALM N/A  
DENVER, CO PTCLDY 25 10 53 SW8 30.06F WCI 16  
GRAND CANYON, PTCLDY 23 15 71 CALM 30.23F  
HONOLULU, HI PTCLDY 72 61 68 MISG 30.03  
KAHULUI, MAUI CLEAR 66 57 72 E6 30.05S  
LAKE TAHOE, CA PTCLDY 23 21 92 S5 30.21F WCI 17  
LAS VEGAS, NV PTCLDY 51 28 41 S5 30.13S  
MAMMOTH LAKES, PTCLDY 20 16 83 CALM 30.24F  
MEXICO CITY, M CLEAR 54 45 71 E6 30.33F  
PHOENIX, AZ MOCLDY 62 33 33 SW3 30.01R  
PORTLAND, OR MOCLDY 44 39 82 CALM 30.22F  
RENO, NV MOCLDY 36 27 69 CALM 30.20F  
SALT LAKE CITY PTCLDY 35 26 69 S7 30.26F WCI 29  
SAN DIEGO, CA CLOUDY 59 51 75 CALM 30.04F  
SAN FRANCISCO, MOCLDY 55 48 77 CALM 30.06F  
SAN JOSE, CA PTCLDY 53 45 74 E3 30.07S  
SEATTLE, WA FOG 43 42 97 S6 30.19S VSB 1/4  
TIJUANA, MEX MOCLDY 59 45 58 E5 30.06  
 

 
 
STATION/POSITION TIME TEMP WIND PRES VSBY WAVE
 
AIR SEA DIR/SP/G HT/PER  
(UTC) (F) (DEG/KT/KT) (MB) (MI) (FT/S)  
WEST SANTA BARBA 0850 58 58 250/ 2/ 4 1015.3F 8/14  
EAST SANTA BARBA 0850 58 58 110/ 2/ 4 1014.9F 5/14  
SANTA MONICA BAY 0840 59 60 50/ 4/ 6 1016.5F  
SAN CLEMENTE BAS 0840 60 61 70/ 4/ 6 1015.5F  
 
CLICK HERE TO GO TO PREVIOUS BULLETINS.

The Nexlab CA Page Main Text Page